Weather in Ribnitsa

Moldova     47°45′55″N   29°00′27″E
temp.,
°C
wind,
m/s
gust,
m/s
humid.,
%
clouds,
%
prec.,
mm/h
press.,
hPa
HPBL,
m
9 may, sun
sun900:00+6nw511755 0.0 1021354
03:00+4nw39810 0.0 1022230
06:00+3wnw36850 0.0 1024142
09:00+9nw47660 0.0 1026709
12:00+12nw67455 0.0 10251802
15:00+14nw46388 0.0 10252378
18:00+15nnw34395 0.0 10252151
21:00+10ese22544 0.0 102610
10 may, mon
mon1000:00+8sse22570 0.0 102711
03:00+7se22600 0.0 102712
06:00+6ese22645 0.0 102713
09:00+12se34525 0.0 1028399
12:00+16se44430 0.0 10271536
15:00+18se33400 0.0 10251688
18:00+17ese224218 0.0 10241687
21:00+12e33610 0.0 102439
11 may, tue
tue1100:00+9e37670 0.0 1025113
03:00+7e22730 0.0 102419
06:00+7ne22750 0.0 102313
09:00+12ne34560 0.0 1022518
12:00+16nne44420 0.0 10211226
15:00+18nne44465 0.0 10191385
18:00+18nne555869 0.0 10171352
21:00+13nne378433 0.0 1017134
12 may, wed
wed1200:00+13ene598777 0.0 1016450
03:00+9ne379842 0.0 1015211
06:00+7ene488914 0.0 1015217
09:00+11ene567122 0.0 1014832
12:00+13ene4457100 0.0 10131448
15:00+12e225683 0.0 1013977
18:00+14e43556 0.0 10121000
21:00+9ese367317 0.0 101191
13 may, thu
thu1300:00+9se397797 0.0 1011219
03:00+10se5107495 0.0 1010400
06:00+9se6129662 0.0 1009386
09:00+13sse81178100 0.0 1008854
12:00+16sse81257100 0.0 10071676
15:00+17sse71057100 0.0 10061690
18:00+14s377822 0.0 1007258
21:00+13ssw2282100 0.3 100817